Der Flugplatz Krefeld-Egelsberg
  • ICAO-Code: EDLK
  • Koordinaten: N 51° 23,10'    E 06° 35,26'
  • Höhe ü. NN: 141 ft / 43 m
  • Platzfrequenz: 120.675 MHz - Krefeld Info
  • Landebahn: 06 - 24
  • Abmessungen: 640 x 30m
  • Belag: Gras
  • Tragfähigkeit: 2000 kg MTW; HEL 5700 kg MTW
  • Tankstelle: Nein
  • Betriebszeit: PPR
  • PPR-Request: Tel: 02151/ 560133, 368400
  • Landegebühr: Private Flüge 5 €, für gewerbliche Flüge wird eine gesonderte Gebühr erhoben

 

Wetterinformation

[Quelle: ADDS]
METAR
EDDL 190150Z 04009KT 9999 FEW013 SCT020 03/01 Q1023 TEMPO BKN012 =
EDDL 182300Z 1900/2006 05011KT 9999 SCT030 TEMPO 1900/1907 BKN010 PROB30 TEMPO 1910/1916 05015G25KT
TAF
EDDL 182300Z 1900/2006 05011KT 9999 SCT030 TEMPO 1900/1907 BKN010 PROB30 TEMPO 1910/1916 05015G25KT =
Lade Webcam-Bild
Cookies erleichtern die Bereitstellung unserer Dienste. Mit der Nutzung unserer Dienste erklären Sie sich damit einverstanden, dass wir Cookies verwenden.